Miscellaneous Local Product
Issued by NWS Hastings, NE

Home | Current Version | Previous Version | Text Only | Print | Product List | Glossary On
Versions: 1 2 3 4 5 6 7 8 9 10 11 12 13 14 15 16 17 18 19 20 21 22 23 24 25 26 27 28 29 30 31 32 33 34 35 36 37 38 39 40 41 42 43 44 45 46 47 48 49 50
000
AXUS43 KGID 050902
MISGRI

GID CWA HOURLY WEATHER ROUNDUP
NATIONAL WEATHER SERVICE HASTINGS NE
300 AM CST THU MAR 05 2015

NOTE: "FAIR" INDICATES FEW OR NO CLOUDS BELOW 12,000 FEET WITH NO
SIGNIFICANT WEATHER AND/OR OBSTRUCTIONS TO VISIBILITY.

...SOUTH CENTRAL NEBRASKA...

CITY           SKY/WX    TMP DP  RH WIND       PRES   REMARKS
GRAND ISLAND   CLEAR      5  -2  72 CALM      30.44F
HASTINGS       CLEAR      4  -4  69 CALM      30.42S
KEARNEY        CLEAR      5  -2  72 CALM      30.40F
ORD            CLEAR     -1  -8  72 SW3       30.40S
YORK           CLEAR      1  -2  85 W3        30.45S
AURORA         CLEAR      1  -5  75 CALM      30.44S
LEXINGTON      CLEAR      4   0  81 CALM      30.37F
HOLDREGE       CLEAR      6  -1  71 E6        30.39S WCI  -4
HEBRON         CLEAR      7   0  72 CALM      30.47S

...NEBRASKA PANHANDLE...

CITY           SKY/WX    TMP DP  RH WIND       PRES   REMARKS
CHADRON        MOCLDY    -6 -11  79 SW3       30.24F
ALLIANCE       PTCLDY     0  -6  76 CALM      30.21F
SCOTTSBLUFF    CLEAR      7   1  76 N3        30.22F
SIDNEY         CLEAR      9   4  80 W10       30.22F WCI  -5

...WESTERN AND NORTH CENTRAL NEBRASKA...

CITY           SKY/WX    TMP DP  RH WIND       PRES   REMARKS
VALENTINE      CLEAR      0  -4  83 W6        30.32F WCI -12
AINSWORTH      CLEAR      3  -2  79 SW8       30.32F WCI -11
ONEILL         CLEAR      0  -3  88 SW3       30.39S
BROKEN BOW     CLEAR      1  -5  75 CALM      30.35F
IMPERIAL         N/A      8   1  73 CALM      30.29F
NORTH PLATTE   CLEAR      4  -3  73 E3        30.33F
MCCOOK         CLEAR     12   2  64 E5        30.35S WCI   4

...EASTERN NEBRASKA...

CITY           SKY/WX    TMP DP  RH WIND       PRES   REMARKS
NORFOLK        CLEAR     -1  -7  75 SW5       30.43S WCI -11
SO SIOUX CITY  CLEAR     -2  -7  79 W5        30.49S WCI -12
TEKAMAH        CLEAR      0  -6  76 W5        30.50S WCI -10
COLUMBUS       PTCLDY     0 -11  60 CALM      30.47S
ALBION         MOCLDY     1  -6  75 CALM      30.43R
OMAHA EPPLEY   CLEAR      6  -4  63 CALM      30.51R
OFFUTT AFB     CLEAR      5  -3  70 N1        30.49S
MILLARD        CLEAR      8  -2  62 CALM      30.50S
LINCOLN        CLEAR      3  -4  72 NW3       30.50S
NEBRASKA CITY  CLEAR      6  -5  59 N3        30.49R
BEATRICE       CLEAR      5  -1  77 CALM      30.48R
FALLS CITY     FAIR       8  -2  63 NW3       30.50R

...NORTHERN KANSAS...

CITY           SKY/WX    TMP DP  RH WIND       PRES   REMARKS
GOODLAND       CLEAR     16   9  74 W13       30.29S WCI   2
HILL CITY      CLEAR     13   4  67 E7        30.39S WCI   3
NORTON         SUNNY      9   0  66 CALM      30.37S
PHILLIPSBURG   CLEAR     12   5  73 E5        30.43S WCI   4
SMITH CENTER   CLEAR      9   1  72 NE8       30.44S WCI  -4
BELOIT         CLEAR      9   3  78 NE5       30.46S WCI   0
HAYS           MOCLDY    16   1  53 W6        30.38F WCI   7
RUSSELL        PTCLDY    11   4  73 NE8       30.40R WCI  -1
CONCORDIA      CLEAR     10   2  69 NE5       30.46S WCI   2
SALINA         CLEAR     16   3  56 N5        30.47R WCI   9
TOPEKA         CLEAR     15   2  56 NE6       30.49R WCI   6



USA.gov is the U.S. government's official web portal to all federal, state and local government web resources and services.